Change the Weather History Date:

Monday, January 28, 2013

  Actual Average Record
Temperature  
Mean Temperature 25 °F 24 °F  
Max Temperature 32 °F 35 °F 66 °F (1941)
Min Temperature 17 °F 14 °F -46 °F (1929)
Degree Days  
Heating Degree Days 40 41  
Month to date heating degree days 1069 1160  
Since 1 July heating degree days 4273 4582  
Cooling Degree Days 0 0  
Month to date cooling degree days 0 0  
Year to date cooling degree days 0 0  
Moisture  
Dew Point 14 °F    
Average Humidity 58    
Maximum Humidity 77    
Minimum Humidity 39    
Precipitation  
Precipitation 0.00 in 0.02 in 0.35 in (1907)
Month to date precipitation 0.76 0.52  
Year to date precipitation 0.76 0.52  
Snow  
Snow 0.00 in - - ()
Snow Depth T in    
Sea Level Pressure  
Sea Level Pressure 29.82 in    
Wind  
Wind Speed 10 mph (WSW)    
Max Wind Speed 17 mph    
Max Gust Speed 24 mph    
Visibility 10 miles    
Events      
T = Trace of Precipitation, MM = Missing Value Source: NWS Daily Summary

Daily Weather History Graph

Daily Weather History Graph

Search for Another Location

Airport or City:

Trip Planner

Search our weather history database for the weather conditions in past years. The results will help you decide how hot, cold, wet, or windy it might be!

Date:

Astronomy

Jan. 28, 2013 Rise Set
Actual Time 7:47 AM MST 5:15 PM MST
Civil Twilight 7:14 AM MST 5:47 PM MST
Nautical Twilight 6:37 AM MST 6:24 PM MST
Astronomical Twilight 6:01 AM MST 7:00 PM MST
Moon 7:24 PM MST (1/28) 8:05 AM MST (1/28)
Length of Visible Light 10h 33m
Length of Day
9h 27m
Full, 97% of the Moon is Illuminated
Jan 28
Full
Feb 3
Last Quarter
Feb 10
New
Feb 17
First Quarter
Feb 25
Full

Hourly Weather History & Observations

Time (MST) Temp. Windchill Dew Point Humidity Pressure Visibility Wind Dir Wind Speed Gust Speed Precip Events Conditions
12:54 AM 25.0 °F 14.8 °F 17.1 °F 72% 29.86 in 10.0 mi SW 10.4 mph - N/A   Overcast
1:54 AM 24.1 °F 13.7 °F 16.0 °F 71% 29.86 in 10.0 mi WSW 10.4 mph - N/A   Mostly Cloudy
2:54 AM 21.0 °F 13.4 °F 16.0 °F 81% 29.87 in 10.0 mi WSW 5.8 mph - N/A   Clear
3:54 AM 21.0 °F 10.6 °F 14.0 °F 74% 29.86 in 10.0 mi SW 9.2 mph - N/A   Clear
4:54 AM 19.0 °F 8.2 °F 12.0 °F 74% 29.87 in 10.0 mi WSW 9.2 mph - N/A   Clear
5:54 AM 21.0 °F 12.4 °F 12.9 °F 71% 29.88 in 10.0 mi SW 6.9 mph - N/A   Partly Cloudy
6:54 AM 25.0 °F 14.8 °F 15.1 °F 66% 29.87 in 10.0 mi SW 10.4 mph - N/A   Overcast
7:54 AM 21.9 °F 11.0 °F 12.9 °F 68% 29.88 in 10.0 mi WSW 10.4 mph - N/A   Partly Cloudy
8:54 AM 24.1 °F 13.1 °F 12.9 °F 62% 29.88 in 10.0 mi SW 11.5 mph - N/A   Mostly Cloudy
9:54 AM 27.0 °F 15.6 °F 14.0 °F 58% 29.86 in 10.0 mi WSW 13.8 mph - N/A   Mostly Cloudy
10:54 AM 28.0 °F 18.6 °F 14.0 °F 56% 29.86 in 10.0 mi West 10.4 mph - N/A   Clear
11:54 AM 30.9 °F 19.4 °F 14.0 °F 50% 29.83 in 10.0 mi West 17.3 mph 23.0 mph N/A   Clear
12:54 PM 30.9 °F 23.5 °F 14.0 °F 50% 29.81 in 10.0 mi WNW 8.1 mph - N/A   Clear
1:54 PM 32.0 °F 23.6 °F 14.0 °F 48% 29.78 in 10.0 mi WNW 10.4 mph - N/A   Partly Cloudy
2:54 PM 32.0 °F 23.0 °F 10.9 °F 42% 29.78 in 10.0 mi WNW 11.5 mph - N/A   Clear
3:54 PM 30.9 °F 23.5 °F 12.0 °F 46% 29.79 in 10.0 mi WNW 8.1 mph - N/A   Clear
4:54 PM 28.9 °F 23.9 °F 14.0 °F 54% 29.80 in 10.0 mi WNW 4.6 mph - N/A   Clear
5:54 PM 21.9 °F 11.0 °F 12.9 °F 68% 29.81 in 10.0 mi SSW 10.4 mph - N/A   Clear
6:54 PM 21.9 °F 11.0 °F 12.0 °F 66% 29.79 in 10.0 mi SSW 10.4 mph - N/A   Overcast
7:54 PM 25.0 °F 14.2 °F 14.0 °F 63% 29.78 in 10.0 mi SW 11.5 mph - N/A   Overcast
8:54 PM 21.9 °F 10.4 °F 12.0 °F 66% 29.78 in 10.0 mi SW 11.5 mph - N/A   Overcast
9:54 PM 23.0 °F 11.1 °F 12.0 °F 63% 29.75 in 10.0 mi WSW 12.7 mph - N/A   Scattered Clouds
10:54 PM 26.1 °F 16.8 °F 14.0 °F 60% 29.73 in 10.0 mi WSW 9.2 mph - N/A   Overcast
11:54 PM 27.0 °F 17.3 °F 16.0 °F 63% 29.72 in 10.0 mi WSW 10.4 mph - N/A   Overcast